DW4712 Weather Reports


time (UTC)temp
F
wind
direction
speed
knots
gust
knots
rain 1hr
in
rain 24hr
in
rain mn
in
humidity
%
barometer
mb
20260510190048 79 0 0.0 5.2 0.00 0.00 0.00 30 1017.2
20260510184541 79 0 0.9 5.2 0.00 0.00 0.00 32 1017.1
20260510183042 80 226 2.6 5.2 0.00 0.00 0.00 31 1017.3
20260510181535 79 219 1.7 4.3 0.00 0.00 0.00 30 1017.4
20260510180044 79 360 0.9 5.2 0.00 0.00 0.00 28 1017.7
20260510174548 79 204 2.6 6.1 0.00 0.00 0.00 33 1017.6
20260510173038 79 54 0.0 2.6 0.00 0.00 0.00 32 1017.9
20260510171546 78 0 0.0 3.5 0.00 0.00 0.00 35 1018.0
20260510170043 78 77 0.9 4.3 0.00 0.00 0.00 36 1017.9
20260510164553 78 256 0.9 4.3 0.00 0.00 0.00 34 1018.0
20260510163042 77 0 0.0 3.5 0.00 0.00 0.00 35 1018.2
20260510161540 77 266 0.0 4.3 0.00 0.00 0.00 36 1018.3
20260510160046 76 256 0.9 4.3 0.00 0.00 0.00 39 1018.3
20260510154544 76 0 0.9 3.5 0.00 0.00 0.00 45 1018.3
20260510153047 74 0 0.9 4.3 0.00 0.00 0.00 53 1018.4
20260510151549 74 0 0.9 3.5 0.00 0.00 0.00 48 1018.5
20260510150056 73 317 0.9 3.5 0.00 0.00 0.00 54 1018.5
20260510144609 71 0 0.0 1.7 0.00 0.00 0.00 52 1018.4
20260510143042 70 0 0.0 2.6 0.00 0.00 0.00 53 1018.4
20260510141543 69 0 0.0 3.5 0.00 0.00 0.00 56 1018.5
20260510140042 68 350 0.0 2.6 0.00 0.00 0.00 61 1018.5
20260510134549 67 336 0.0 2.6 0.00 0.00 0.00 65 1018.5
20260510133047 67 339 0.0 4.3 0.00 0.00 0.00 67 1018.4
20260510131546 66 320 0.0 3.5 0.00 0.00 0.00 69 1018.4
20260510130052 64 0 0.0 1.7 0.00 0.00 0.00 70 1018.2
20260510124541 63 5 0.0 2.6 0.00 0.00 0.00 73 1018.2
20260510123044 62 0 0.0 3.5 0.00 0.00 0.00 74 1018.1
20260510121544 60 0 0.0 1.7 0.00 0.00 0.00 81 1017.9
20260510120042 58 279 0.0 3.5 0.00 0.00 0.00 84 1017.5
20260510114605 57 0 0.0 1.7 0.00 0.00 0.00 86 1017.1
20260510113053 56 0 0.0 0.0 0.00 0.00 0.00 91 1017.0
20260510111545 55 0 0.0 0.9 0.00 0.00 0.00 91 1017.0
20260510110045 55 0 0.0 0.0 0.00 0.00 0.00 91 1016.6
20260510104547 54 0 0.0 0.0 0.00 0.00 0.00 91 1016.4
20260510103041 55 0 0.0 0.9 0.00 0.00 0.00 91 1016.2
20260510101543 55 0 0.0 1.7 0.00 0.00 0.00 92 1015.8
20260510100058 55 0 0.0 0.0 0.00 0.00 0.00 92 1015.6
20260510094550 56 0 0.0 0.0 0.00 0.00 0.00 92 1015.6
20260510093043 57 0 0.0 0.0 0.00 0.00 0.00 92 1015.6
20260510091544 57 0 0.0 0.9 0.00 0.00 0.00 92 1015.5
20260510090046 57 0 0.0 0.0 0.00 0.00 0.00 93 1015.3
20260510084542 57 0 0.0 0.0 0.00 0.00 0.00 93 1015.1
20260510083045 57 0 0.0 0.0 0.00 0.00 0.00 92 1015.0
20260510081536 57 0 0.0 0.0 0.00 0.00 0.00 92 1014.9
20260510080035 57 0 0.0 0.0 0.00 0.00 0.00 92 1014.6
20260510074545 58 0 0.0 0.0 0.00 0.00 0.00 92 1014.5
20260510073052 58 0 0.0 0.0 0.00 0.00 0.00 91 1014.3
20260510071539 58 0 0.0 0.0 0.00 0.00 0.00 91 1014.4
20260510070047 58 0 0.0 0.0 0.00 0.00 0.00 92 1014.2
20260510064549 58 0 0.0 0.0 0.00 0.00 0.00 91 1014.3
20260510063043 58 0 0.0 0.0 0.00 0.00 0.00 91 1014.5
20260510061541 59 0 0.0 0.0 0.00 0.00 0.00 90 1014.6
20260510060044 59 0 0.0 0.0 0.00 0.00 0.00 90 1014.4
20260510054534 59 0 0.0 0.0 0.00 0.00 0.00 90 1014.4
20260510053041 60 0 0.0 0.9 0.00 0.00 0.00 89 1014.6
20260510051543 59 0 0.0 0.0 0.00 0.00 0.00 90 1014.6
20260510050037 60 0 0.0 0.0 0.00 0.00 0.00 89 1014.7
20260510044537 60 0 0.0 0.0 0.00 0.00 0.00 88 1014.7
20260510043043 61 0 0.0 0.0 0.00 0.00 0.00 87 1014.7
20260510041549 61 0 0.0 0.0 0.00 0.00 0.00 87 1014.6
20260510040042 62 0 0.0 0.0 0.00 0.00 0.00 86 1014.6
20260510034539 62 0 0.0 0.0 0.00 0.00 0.00 85 1014.5
20260510033039 63 0 0.0 0.9 0.00 0.00 0.00 82 1014.6
20260510031535 63 0 0.0 0.0 0.00 0.00 0.00 82 1014.6
20260510030043 63 0 0.0 0.9 0.00 0.00 0.00 82 1014.6
20260510024544 63 0 0.0 0.9 0.00 0.00 0.00 82 1014.6
20260510023044 64 0 0.0 0.9 0.00 0.00 0.00 81 1014.5
20260510021543 64 0 0.0 0.9 0.00 0.00 0.00 80 1014.3
20260510020043 64 0 0.0 0.0 0.00 0.00 0.00 80 1014.1
20260510014558 65 0 0.0 2.6 0.00 0.00 0.00 77 1014.1
20260510013041 65 0 0.0 0.0 0.00 0.00 0.00 77 1013.7
20260510011543 66 0 0.0 1.7 0.00 0.00 0.00 75 1013.4
20260510010054 67 248 0.0 1.7 0.00 0.00 0.00 75 1013.0
20260510004539 67 0 0.0 0.9 0.00 0.00 0.00 73 1012.8
20260510003054 68 0 0.0 0.9 0.00 0.00 0.00 73 1012.6
20260510001541 68 0 0.0 0.0 0.00 0.00 0.00 72 1012.4
20260510000051 69 0 0.0 0.9 0.00 0.00 0.00 69 1012.3
20260509234546 70 0 0.0 2.6 0.00 0.00 0.00 69 1012.3
20260509233039 70 254 0.9 3.5 0.00 0.00 0.00 68 1012.2
20260509231544 71 0 0.9 3.5 0.00 0.00 0.00 67 1011.8
20260509230044 71 259 0.9 3.5 0.00 0.00 0.00 65 1011.7
20260509224541 71 0 0.0 3.5 0.00 0.00 0.00 63 1011.3
20260509223035 71 227 1.7 5.2 0.00 0.00 0.00 63 1011.4
20260509221534 72 281 1.7 6.1 0.00 0.00 0.00 63 1011.4
20260509220056 72 249 1.7 6.1 0.00 0.00 0.00 62 1011.3
20260509214543 72 246 1.7 7.0 0.00 0.00 0.00 61 1011.3
20260509213041 73 238 0.9 6.1 0.00 0.00 0.00 61 1011.2
20260509211546 72 240 1.7 6.1 0.00 0.00 0.00 59 1011.4
20260509210046 73 256 1.7 5.2 0.00 0.00 0.00 61 1011.2
20260509204555 73 136 0.9 7.0 0.00 0.00 0.00 59 1010.9
20260509203039 73 245 2.6 7.0 0.00 0.00 0.00 62 1011.0
20260509201541 72 212 1.7 4.3 0.00 0.00 0.00 59 1011.1
20260509200044 71 273 0.9 3.5 0.00 0.00 0.00 64 1011.3
20260509194545 71 242 1.7 7.8 0.00 0.00 0.00 66 1011.3
20260509193045 71 244 0.9 6.1 0.00 0.00 0.00 63 1011.6
20260509191540 71 211 0.9 4.3 0.00 0.00 0.00 63 1011.7